Temp
-20 -20 -18 -17 -15 -14 -14 -14 -13 -12 -13 -12 -12 -12 -13 -13 -12 -12 -11 -12 -12 -12 -11 -11 -11 -11 -11 -11 -11 -11 -11 -11 -11 -11 -11 -11 -11 -11 -11 -11 -11 -11 -11 -11
-22 -21 -20 -18 -15 -15 -14 -14 -13 -13 -13 -13 -13 -12 -13 -13 -13 -13 -12 -12 -12 -12 -12 -12 -11 -11 -12 -12 -11 -11 -12 -12 -12 -12 -12 -12 -12 -12 -12 -12 -12 -12 -12 -12
-23 -22 -21 -19 -17 -15 -15 -14 -14 -13 -13 -13 -12 -12 -13 -13 -13 -13 -12 -12 -12 -12 -12 -12 -12 -12 -12 -12 -12 -12 -12 -12 -12 -12 -12 -12 -12 -12 -12 -12 -12 -12 -12 -12
-23 -22 -21 -20 -19 -17 -16 -15 -14 -14 -13 -13 -13 -12 -12 -13 -13 -13 -13 -13 -12 -13 -12 -12 -12 -12 -12 -12 -12 -12 -12 -12 -12 -12 -12 -12 -12 -12 -12 -12 -12 -12 -12 -13
-23 -21 -20 -20 -18 -17 -17 -16 -15 -14 -14 -14 -13 -14 -12 -13 -13 -13 -13 -13 -13 -13 -12 -12 -12 -12 -12 -12 -12 -12 -12 -12 -12 -12 -13 -12 -12 -13 -12 -12 -13 -12 -12 -12
-22 -21 -21 -20 -19 -17 -16 -16 -15 -14 -14 -14 -13 -13 -13 -13 -12 -12 -12 -13 -13 -13 -13 -12 -12 -12 -12 -12 -12 -12 -12 -12 -12 -13 -13 -13 -12 -12 -12 -12 -12 -12 -12 -13
-22 -21 -21 -20 -20 -19 -16 -17 -15 -14 -14 -14 -13 -14 -13 -12 -13 -13 -13 -13 -13 -13 -13 -13 -13 -13 -13 -13 -12 -12 -12 -12 -12 -13 -13 -13 -13 -12 -12 -13 -12 -13 -13 -13
-23 -22 -21 -21 -20 -20 -18 -18 -15 -15 -14 -14 -14 -13 -13 -12 -13 -13 -13 -13 -13 -13 -13 -13 -13 -13 -13 -13 -12 -12 -12 -13 -13 -13 -13 -12 -13 -13 -12 -13 -13 -13 -13 -14
-23 -22 -22 -21 -20 -20 -18 -18 -16 -15 -15 -14 -14 -14 -13 -13 -13 -13 -13 -13 -13 -13 -13 -13 -13 -13 -13 -13 -13 -12 -13 -13 -13 -13 -14 -14 -13 -13 -13 -13 -13 -14 -14 -14
-22 -22 -21 -21 -20 -19 -18 -17 -17 -16 -15 -14 -14 -13 -13 -13 -13 -13 -13 -13 -13 -13 -13 -13 -13 -13 -13 -13 -13 -13 -13 -13 -14 -14 -14 -14 -14 -14 -14 -14 -14 -14 -15 -15
-22 -21 -21 -20 -20 -19 -17 -17 -17 -17 -17 -15 -14 -14 -14 -13 -13 -13 -13 -13 -13 -13 -13 -13 -13 -13 -13 -14 -14 -14 -14 -14 -13 -14 -14 -14 -14 -15 -15 -14 -14 -14 -15 -15
-23 -21 -21 -20 -20 -19 -19 -17 -17 -18 -17 -16 -14 -14 -14 -14 -13 -13 -13 -13 -13 -13 -13 -13 -13 -13 -14 -14 -14 -14 -14 -14 -14 -14 -15 -15 -15 -15 -15 -15 -15 -15 -15 -15
-23 -22 -22 -21 -20 -18 -17 -18 -18 -18 -17 -17 -15 -15 -14 -14 -14 -14 -14 -14 -14 -14 -14 -14 -14 -14 -14 -14 -14 -14 -15 -15 -15 -15 -15 -15 -15 -15 -16 -15 -15 -15 -15 -16
-23 -22 -22 -21 -20 -20 -20 -19 -18 -18 -17 -17 -17 -16 -16 -15 -15 -15 -15 -15 -15 -15 -15 -15 -15 -15 -15 -15 -15 -15 -15 -15 -15 -15 -16 -16 -15 -15 -15 -15 -15 -16 -16 -16
-23 -22 -22 -22 -20 -20 -20 -19 -18 -19 -18 -17 -17 -17 -17 -16 -16 -16 -16 -15 -16 -16 -15 -15 -15 -15 -15 -14 -15 -14 -14 -15 -16 -16 -15 -16 -15 -15 -15 -16 -16 -16 -17 -18
-23 -23 -22 -22 -20 -19 -20 -19 -20 -20 -19 -19 -19 -18 -18 -18 -17 -17 -16 -15 -15 -15 -15 -15 -15 -15 -15 -15 -15 -15 -15 -15 -15 -15 -16 -16 -16 -16 -16 -17 -17 -18 -19 -20
-23 -23 -22 -22 -21 -20 -19 -20 -20 -19 -19 -19 -18 -17 -18 -17 -16 -16 -16 -16 -16 -16 -16 -16 -16 -15 -15 -16 -15 -16 -16 -16 -16 -16 -16 -16 -16 -17 -17 -18 -19 -20 -20 -20
-23 -23 -22 -22 -22 -22 -21 -20 -19 -18 -17 -17 -17 -16 -16 -16 -16 -16 -16 -16 -16 -16 -16 -16 -15 -15 -15 -15 -15 -16 -16 -16 -16 -16 -16 -16 -17 -18 -19 -20 -20 -21 -20 -21
-22 -23 -23 -22 -22 -22 -21 -21 -20 -18 -17 -17 -17 -17 -17 -17 -17 -17 -16 -16 -16 -16 -16 -16 -15 -15 -15 -16 -16 -16 -16 -16 -16 -16 -17 -18 -19 -20 -20 -20 -20 -21 -21 -21
-22 -22 -22 -22 -22 -22 -21 -21 -21 -20 -19 -18 -17 -17 -17 -18 -18 -16 -16 -16 -17 -17 -16 -16 -16 -16 -16 -16 -16 -16 -16 -17 -17 -18 -18 -19 -20 -21 -21 -21 -21 -22 -21 -22
-22 -22 -22 -22 -21 -22 -21 -21 -21 -20 -20 -19 -18 -18 -18 -18 -18 -18 -18 -17 -17 -17 -17 -17 -17 -16 -16 -16 -17 -17 -17 -18 -18 -19 -20 -21 -21 -21 -21 -21 -21 -21 -22 -22
-23 -22 -22 -22 -22 -22 -21 -21 -21 -21 -20 -20 -19 -19 -19 -19 -18 -18 -18 -17 -17 -17 -17 -17 -17 -17 -17 -17 -17 -18 -19 -19 -20 -21 -21 -21 -21 -21 -21 -21 -22 -22 -22 -23
-24 -23 -22 -22 -22 -22 -21 -20 -20 -20 -20 -20 -20 -20 -19 -19 -19 -18 -18 -18 -18 -17 -17 -17 -17 -18 -18 -18 -19 -19 -19 -20 -20 -21 -21 -21 -21 -21 -22 -22 -22 -22 -22 -23
-24 -23 -22 -21 -22 -21 -21 -21 -20 -20 -19 -19 -19 -19 -19 -18 -18 -18 -18 -18 -18 -17 -17 -18 -18 -18 -19 -19 -20 -20 -20 -20 -21 -21 -21 -22 -22 -22 -22 -22 -22 -23 -23 -23
-25 -24 -22 -21 -21 -21 -20 -20 -19 -19 -19 -19 -19 -19 -19 -19 -19 -18 -18 -18 -18 -18 -18 -19 -19 -20 -20 -20 -20 -21 -21 -21 -21 -22 -22 -22 -21 -21 -22 -22 -23 -23 -24 -24
-24 -23 -22 -21 -20 -21 -20 -20 -20 -19 -19 -19 -19 -19 -18 -18 -18 -18 -19 -19 -19 -19 -20 -20 -20 -20 -20 -21 -21 -21 -21 -21 -21 -21 -21 -21 -22 -22 -23 -23 -24 -24 -24 -24
Height
5633 5644 5653 5671 5685 5697 5699 5703 5710 5724 5734 5738 5741 5749 5756 5763 5770 5776 5782 5788 5794 5799 5802 5807 5812 5815 5819 5822 5825 5826 5828 5827 5828 5830 5830 5831 5831 5832 5832 5831 5830 5829 5827 5826
5619 5627 5646 5654 5669 5675 5684 5693 5704 5712 5722 5727 5734 5740 5744 5750 5760 5769 5775 5780 5785 5792 5796 5801 5805 5810 5814 5816 5817 5820 5821 5823 5822 5823 5825 5825 5825 5825 5824 5824 5822 5821 5819 5817
5610 5624 5633 5643 5654 5660 5673 5683 5692 5698 5711 5716 5724 5727 5732 5741 5749 5757 5765 5771 5775 5782 5789 5793 5797 5802 5806 5808 5810 5812 5814 5815 5817 5817 5818 5818 5818 5817 5816 5815 5814 5813 5811 5808
5605 5618 5627 5636 5643 5653 5667 5675 5679 5688 5694 5700 5711 5716 5720 5730 5741 5747 5754 5763 5769 5775 5782 5787 5791 5794 5797 5801 5803 5805 5806 5808 5809 5809 5810 5810 5810 5810 5808 5807 5806 5804 5802 5797
5607 5613 5624 5632 5639 5642 5651 5662 5669 5677 5685 5693 5698 5707 5717 5723 5729 5738 5746 5754 5762 5768 5774 5780 5784 5788 5791 5793 5795 5797 5798 5799 5799 5800 5800 5801 5802 5802 5801 5799 5797 5792 5789 5786
5603 5610 5619 5628 5634 5639 5653 5659 5662 5674 5679 5678 5688 5698 5704 5714 5723 5726 5735 5746 5755 5760 5766 5772 5776 5780 5784 5786 5788 5789 5790 5790 5791 5791 5793 5792 5793 5792 5789 5787 5786 5780 5779 5775
5599 5605 5615 5619 5624 5634 5641 5654 5664 5666 5665 5668 5683 5690 5697 5710 5717 5723 5732 5739 5747 5753 5759 5764 5768 5771 5773 5777 5781 5782 5783 5783 5784 5785 5785 5784 5783 5782 5774 5776 5775 5772 5769 5766
5595 5602 5609 5614 5617 5631 5639 5651 5654 5652 5658 5666 5675 5677 5688 5700 5710 5717 5724 5730 5735 5742 5748 5754 5759 5763 5764 5768 5771 5773 5774 5775 5776 5776 5778 5774 5774 5772 5770 5768 5766 5763 5759 5757
5594 5601 5608 5614 5619 5625 5634 5647 5648 5648 5652 5661 5666 5673 5684 5694 5702 5707 5714 5720 5726 5734 5740 5744 5749 5754 5756 5759 5762 5764 5765 5765 5766 5766 5766 5765 5763 5763 5762 5760 5757 5751 5749 5747
5592 5600 5605 5610 5615 5622 5635 5642 5643 5645 5651 5653 5660 5669 5677 5685 5693 5701 5707 5712 5717 5722 5729 5735 5740 5744 5749 5750 5752 5754 5757 5757 5756 5757 5756 5755 5753 5753 5751 5749 5747 5744 5741 5738
5591 5598 5603 5608 5614 5624 5632 5634 5635 5641 5647 5648 5655 5664 5672 5679 5687 5693 5700 5705 5710 5716 5721 5726 5732 5735 5739 5742 5744 5744 5746 5746 5747 5747 5747 5747 5746 5745 5743 5741 5738 5734 5731 5727
5591 5595 5600 5605 5608 5614 5620 5628 5634 5641 5645 5645 5653 5663 5668 5675 5681 5686 5692 5698 5704 5710 5716 5721 5725 5730 5732 5735 5735 5736 5737 5739 5739 5740 5740 5740 5739 5738 5735 5732 5729 5725 5721 5716
5590 5595 5598 5601 5606 5612 5619 5625 5628 5639 5642 5646 5654 5660 5663 5670 5676 5681 5687 5692 5698 5704 5710 5714 5719 5721 5723 5726 5727 5728 5729 5731 5733 5733 5733 5731 5729 5727 5724 5722 5719 5715 5711 5705
5590 5595 5598 5601 5603 5612 5617 5622 5628 5633 5642 5647 5652 5656 5660 5666 5672 5677 5683 5688 5694 5700 5704 5708 5712 5714 5716 5718 5720 5722 5723 5724 5724 5724 5723 5722 5720 5718 5715 5712 5708 5704 5700 5694
5589 5595 5598 5603 5606 5610 5614 5619 5626 5633 5639 5646 5651 5655 5657 5663 5669 5675 5681 5686 5691 5696 5701 5704 5707 5709 5710 5712 5713 5715 5716 5716 5716 5716 5715 5713 5711 5708 5705 5703 5697 5693 5688 5682
5587 5591 5594 5596 5601 5606 5610 5617 5624 5631 5637 5643 5648 5653 5656 5662 5667 5671 5677 5682 5687 5692 5696 5699 5701 5703 5704 5705 5707 5708 5708 5708 5708 5708 5706 5705 5702 5699 5695 5691 5686 5681 5675 5670
5588 5592 5594 5597 5599 5603 5611 5617 5623 5630 5637 5643 5647 5651 5655 5660 5664 5668 5674 5679 5684 5688 5691 5693 5694 5696 5697 5699 5700 5700 5701 5701 5700 5699 5698 5696 5692 5687 5683 5679 5674 5668 5663 5658
5587 5591 5595 5599 5604 5611 5615 5617 5622 5627 5633 5639 5643 5647 5651 5656 5661 5664 5669 5674 5678 5681 5683 5685 5686 5688 5690 5692 5694 5695 5695 5694 5693 5690 5688 5684 5679 5675 5671 5667 5662 5657 5653 5648
5585 5589 5594 5599 5605 5612 5613 5614 5619 5624 5628 5633 5637 5642 5648 5652 5657 5661 5664 5667 5672 5676 5678 5680 5681 5684 5686 5687 5688 5688 5688 5685 5684 5681 5676 5673 5670 5665 5660 5656 5652 5647 5641 5635
5582 5586 5592 5596 5601 5605 5611 5615 5618 5621 5625 5630 5635 5640 5644 5649 5651 5655 5659 5664 5668 5671 5673 5675 5678 5679 5680 5680 5680 5680 5678 5675 5672 5669 5666 5663 5659 5655 5652 5646 5639 5634 5627 5620
5578 5582 5588 5592 5598 5603 5607 5612 5616 5620 5625 5627 5632 5637 5642 5645 5649 5653 5657 5660 5663 5666 5669 5671 5671 5672 5673 5673 5672 5670 5668 5665 5663 5659 5656 5653 5648 5644 5639 5634 5629 5622 5616 5609
5576 5580 5584 5589 5595 5601 5604 5608 5614 5618 5621 5626 5631 5635 5638 5641 5645 5649 5654 5657 5659 5661 5662 5664 5665 5666 5666 5665 5663 5660 5658 5654 5651 5649 5645 5643 5639 5634 5629 5623 5617 5610 5603 5598
5574 5577 5581 5588 5594 5599 5602 5607 5612 5617 5621 5625 5630 5632 5635 5639 5643 5646 5649 5652 5654 5656 5657 5658 5658 5657 5656 5654 5651 5649 5647 5645 5643 5641 5638 5634 5629 5623 5617 5611 5605 5599 5593 5586
5569 5572 5578 5585 5592 5597 5601 5605 5610 5615 5621 5625 5628 5630 5633 5636 5640 5643 5645 5647 5649 5649 5650 5650 5649 5648 5647 5645 5644 5642 5641 5638 5635 5631 5627 5623 5618 5613 5607 5601 5595 5589 5581 5573
5566 5569 5575 5584 5589 5595 5600 5605 5609 5614 5618 5622 5625 5628 5631 5633 5635 5637 5639 5640 5641 5642 5642 5641 5641 5640 5640 5639 5636 5634 5631 5629 5626 5622 5618 5614 5609 5603 5597 5591 5584 5576 5567 5558
5566 5570 5577 5584 5590 5596 5601 5605 5609 5612 5616 5619 5622 5625 5628 5631 5633 5634 5634 5635 5635 5635 5635 5635 5634 5633 5631 5629 5628 5627 5624 5621 5618 5614 5609 5604 5598 5593 5585 5578 5570 5562 5552 5544
Wind_Speed
69 74 72 68 82 76 46 56 63 62 52 57 58 54 55 58 61 53 49 47 41 39 39 38 37 35 32 30 29 29 30 31 29 30 31 30 30 30 30 32 33 34 36 38
65 73 64 77 87 82 51 40 59 61 64 63 66 55 56 56 57 55 50 46 44 42 39 39 38 36 33 32 32 33 33 33 32 32 32 32 31 32 33 34 36 37 39 40
46 66 67 68 84 85 50 50 53 47 61 65 59 51 55 54 51 53 59 52 45 43 38 39 40 38 37 37 35 36 36 36 36 34 34 35 35 35 35 37 38 41 42 43
44 40 62 57 71 77 48 47 42 56 55 71 69 63 48 61 60 54 53 52 47 48 42 40 39 38 37 38 38 37 36 37 38 37 37 36 38 40 40 40 41 44 49 53
43 25 47 60 61 49 52 34 40 43 50 57 63 67 61 52 56 62 61 58 51 49 47 43 40 39 37 38 41 41 40 40 41 40 40 40 41 41 42 42 51 50 46 47
43 27 32 41 69 48 55 24 28 48 45 54 52 58 62 62 58 56 57 52 52 46 47 49 47 46 43 41 37 38 40 43 46 45 42 42 40 42 46 47 52 45 51 42
43 30 35 28 44 72 69 42 27 40 50 57 47 59 58 53 56 62 53 53 53 56 51 49 49 49 49 49 44 44 39 39 41 40 39 42 41 43 38 49 47 45 47 46
44 41 34 27 30 50 59 45 30 30 47 48 49 54 57 53 50 52 53 49 53 56 55 52 53 54 53 52 45 39 39 41 42 43 41 37 50 43 45 44 42 50 50 49
37 37 29 35 27 43 66 41 27 25 22 49 48 50 50 49 52 44 45 47 48 55 57 56 51 55 53 55 57 55 48 43 44 45 46 48 44 39 37 44 44 47 45 46
29 37 34 27 34 33 41 29 21 20 26 33 44 49 53 45 46 41 43 42 42 45 44 47 46 48 49 58 54 53 52 51 50 53 46 40 37 41 46 45 46 43 45 48
25 33 35 34 38 41 48 28 26 14 19 24 34 40 43 37 39 35 36 30 28 28 31 35 34 34 35 39 38 35 38 39 38 37 33 31 32 33 34 38 44 47 51 54
11 24 29 35 38 54 38 39 28 12 12 24 36 36 32 33 38 36 37 35 32 35 35 37 37 34 32 30 34 32 34 34 35 32 29 30 36 40 43 47 50 51 53 55
11 9 17 25 35 51 65 52 44 25 12 19 29 32 38 39 38 34 30 27 26 27 25 24 24 23 23 26 29 29 23 20 22 30 36 38 41 44 47 49 51 53 53 50
16 11 10 13 22 34 34 46 49 39 24 15 13 15 23 26 26 23 16 14 13 11 12 14 17 22 22 23 24 25 29 32 35 37 40 43 45 46 47 47 45 46 49 51
22 15 11 10 13 18 27 27 38 29 23 11 9 10 9 8 6 7 11 11 13 15 15 19 22 22 23 24 27 28 32 36 38 39 39 41 41 40 41 43 45 49 53 55
28 16 14 8 14 18 18 20 17 13 9 7 9 7 4 5 8 11 12 12 15 19 21 24 26 28 30 32 32 34 35 35 35 35 34 35 36 39 43 46 50 53 54 56
27 22 22 15 16 20 21 21 19 18 15 14 15 14 11 19 19 19 22 23 23 26 28 29 29 31 32 31 32 31 29 28 29 30 33 38 41 44 48 51 53 52 54 55
31 27 27 20 16 15 17 20 24 24 21 19 21 20 17 21 27 26 25 25 27 27 28 28 28 28 28 28 26 25 26 28 31 34 39 43 45 48 50 50 51 52 53 51
34 32 30 24 18 13 12 16 20 24 24 24 24 24 25 28 28 27 27 27 27 26 25 26 26 25 24 23 25 26 29 33 37 40 43 47 45 48 49 50 50 50 47 48
24 34 30 27 21 17 17 17 17 22 21 22 24 26 25 24 24 26 25 24 24 24 24 24 25 24 23 25 28 31 35 39 42 46 48 46 43 50 48 45 44 46 50 55
21 29 29 28 24 20 18 18 16 21 22 23 24 26 26 22 21 19 21 22 23 23 24 24 24 26 28 31 34 38 41 45 47 46 42 40 40 46 43 44 48 53 57 60
17 23 24 22 19 16 18 17 16 14 21 22 23 24 21 18 19 19 19 20 21 23 24 25 27 30 33 37 40 42 43 43 38 35 36 37 40 41 45 50 54 58 58 58
18 21 23 22 17 17 17 18 17 16 17 18 19 18 18 18 18 19 20 21 22 24 26 29 31 35 39 41 41 39 39 34 32 33 34 37 42 46 51 55 58 57 59 61
12 22 25 23 21 20 20 18 19 17 18 18 19 19 19 20 21 21 22 24 26 28 31 34 38 40 40 37 33 31 30 31 30 33 38 42 47 53 57 58 56 59 60 63
10 18 25 22 23 21 19 19 19 19 19 19 20 21 22 22 22 24 26 28 31 34 34 34 32 29 27 27 28 27 27 30 35 39 45 50 55 55 53 56 58 60 62 65
7 14 16 24 21 19 18 17 16 20 23 23 24 24 25 27 29 30 31 31 30 27 24 21 23 26 27 27 27 28 32 37 43 47 50 52 50 54 55 57 59 62 65 69
Wind_Direction
221 218 216 209 210 208 224 218 220 226 222 218 231 230 229 228 228 228 229 232 231 232 234 234 235 238 240 240 241 243 244 243 244 247 253 258 262 268 274 277 278 280 284 286
216 211 212 212 208 214 209 217 222 220 222 222 227 230 229 225 224 224 230 235 236 234 234 236 234 235 238 238 238 240 243 248 250 254 258 264 269 270 271 273 276 279 283 287
218 212 211 214 212 215 214 212 213 217 219 221 213 222 230 226 224 230 227 228 228 231 232 236 236 236 236 237 240 242 245 249 252 255 260 263 267 269 272 275 276 279 285 289
207 212 213 211 218 220 211 208 204 213 216 222 214 216 224 220 218 223 223 223 233 230 233 235 236 236 237 241 244 246 247 251 257 260 263 266 270 273 275 280 284 288 289 289
202 205 216 216 214 211 224 211 221 209 215 220 222 221 217 221 226 230 231 235 228 230 230 231 233 235 242 247 246 245 247 250 254 255 260 266 271 276 281 284 292 289 288 289
196 188 204 216 220 205 211 226 221 217 218 215 228 227 225 219 228 230 233 226 231 229 233 234 234 239 239 245 247 247 250 257 259 261 265 270 274 280 282 291 288 288 287 295
197 191 198 215 228 222 212 226 235 215 217 220 226 225 228 216 219 229 230 242 243 234 232 235 237 243 247 246 251 253 256 260 260 262 265 276 283 289 259 289 286 278 283 292
202 215 206 226 229 216 221 224 216 207 218 216 221 224 225 223 216 224 228 236 235 236 237 229 228 238 242 248 242 242 246 249 257 260 268 266 284 283 270 282 281 278 287 288
205 206 215 222 214 223 225 231 218 202 206 218 219 227 224 222 225 228 229 233 232 235 237 242 237 242 243 246 252 252 254 264 267 281 286 280 275 272 272 274 281 294 289 292
208 207 207 212 204 206 207 192 173 167 171 198 218 225 228 228 224 233 227 234 231 232 231 236 242 243 240 250 257 258 260 272 275 279 271 267 267 265 266 272 279 289 293 290
215 215 221 216 204 201 208 200 167 148 154 161 191 211 217 212 213 212 208 207 207 211 221 224 228 231 243 246 251 254 263 265 263 257 262 267 272 276 277 280 281 282 285 288
235 218 222 223 216 206 209 209 198 200 144 152 182 194 195 201 189 197 199 201 202 203 207 218 226 230 231 233 241 242 248 256 260 265 263 265 269 272 273 274 280 285 288 289
171 192 221 231 227 214 219 217 234 240 180 143 166 170 180 190 190 187 187 187 193 201 210 219 231 240 243 246 245 245 242 249 259 262 267 267 267 273 279 283 285 287 289 292
165 140 206 226 231 225 236 240 242 257 252 226 181 166 167 174 183 186 186 187 205 221 238 238 237 230 228 235 245 251 253 255 261 264 266 270 275 280 282 284 287 290 291 291
163 163 157 191 212 221 237 247 251 262 270 235 230 196 168 169 171 204 205 214 215 224 223 223 225 231 236 241 246 252 256 260 266 270 273 276 278 281 285 287 288 289 289 290
168 156 143 196 200 223 236 244 238 253 268 233 250 251 193 206 209 213 219 227 229 228 230 228 231 236 240 245 250 256 261 265 269 271 274 278 281 284 285 285 286 287 289 292
185 178 163 171 191 200 206 216 225 232 230 215 216 227 225 222 211 221 222 219 224 226 231 236 241 245 250 252 253 258 262 265 269 274 277 280 282 284 285 287 288 290 295 300
205 199 197 198 190 188 196 200 206 216 222 225 215 214 219 227 220 219 219 228 233 231 235 238 241 242 243 247 252 258 263 268 272 276 280 282 283 284 285 288 293 299 299 299
214 215 215 210 205 203 211 206 199 203 212 214 211 215 216 210 213 216 225 229 235 235 235 236 238 243 247 253 257 262 267 272 276 278 280 281 287 288 293 298 298 296 296 299
219 219 220 223 232 242 216 218 212 201 198 198 199 204 206 203 200 205 211 219 222 227 233 238 242 245 249 255 263 269 271 275 277 278 279 282 283 294 297 294 297 299 303 305
221 222 231 238 239 228 210 218 214 199 196 197 196 198 202 204 208 210 214 217 225 234 239 242 248 254 257 263 267 271 273 274 277 282 290 291 288 293 298 299 302 303 302 303
224 220 219 220 220 212 198 207 211 204 196 199 201 204 207 209 215 218 220 226 231 237 245 251 256 260 264 268 269 272 277 282 290 293 292 293 293 293 296 298 299 301 303 304
223 221 216 212 203 199 192 197 202 203 205 208 209 206 206 210 217 227 234 238 244 251 257 260 265 269 272 276 281 285 288 293 292 290 290 289 293 295 297 299 301 303 305 307
232 216 213 206 200 194 195 195 198 202 212 217 223 221 220 223 229 233 240 247 251 255 261 265 268 271 276 279 282 283 287 289 290 288 289 292 294 298 300 301 302 305 306 306
218 207 206 198 198 199 199 202 205 209 215 222 229 234 237 241 242 245 248 253 258 262 266 270 273 275 277 280 284 286 286 287 287 289 292 294 298 301 301 303 305 306 307 308
152 160 193 199 197 194 204 213 220 224 226 230 234 238 242 247 250 252 256 261 266 269 270 271 278 283 282 281 280 281 284 288 290 291 294 297 299 302 304 305 307 308 308 309